Kalamazoo, MI

7:24 PM EST on January 20, 2017 (GMT -0500)
Kalamazoo-Battle Creek International

Weather History for KAZO - November, 2014

Change the Weather History Date:

Monday, November 24, 2014

  Actual Average Record
Temperature  
Mean Temperature 42 °F 37 °F  
Max Temperature 53 °F 43 °F 62 °F (1973)
Min Temperature 30 °F 31 °F -2 °F (1950)
Degree Days  
Heating Degree Days 23 28  
Month to date heating degree days 717 558  
Since 1 July heating degree days 1337 1150  
Cooling Degree Days 0 0  
Month to date cooling degree days 0 0  
Year to date cooling degree days 609 675  
Moisture  
Dew Point 40 °F    
Average Humidity 84    
Maximum Humidity 96    
Minimum Humidity 72    
Precipitation  
Precipitation 0.77 in 0.08 in 0.82 in (1949)
Month to date precipitation 2.55 2.46  
Year to date precipitation 27.05 33.20  
Sea Level Pressure  
Sea Level Pressure 29.26 in    
Wind  
Wind Speed 16 mph (SW)    
Max Wind Speed 32 mph    
Max Gust Speed 45 mph    
Visibility 6 miles    
Events Rain , Snow    
T = Trace of Precipitation, MM = Missing Value Source: NWS Daily Summary

Daily Weather History Graph

Daily Weather History Graph

Search for Another Location

Airport or City:

Trip Planner

Search our weather history database for the weather conditions in past years. The results will help you decide how hot, cold, wet, or windy it might be!

Date:

Astronomy

Nov. 24, 2014 Rise Set
Actual Time 7:43 AM EST 5:13 PM EST
Civil Twilight 7:12 AM EST 5:44 PM EST
Nautical Twilight 6:38 AM EST 6:19 PM EST
Astronomical Twilight 6:04 AM EST 6:52 PM EST
Moon 9:35 AM EST (11/24) 7:35 PM EST (11/24)
Length of Visible Light 10h 32m
Length of Day
9h 30m
Waxing Crescent, 6% of the Moon is Illuminated
Nov 24
Waxing Crescent
Nov 29
First Quarter
Dec 6
Full
Dec 14
Last Quarter
Dec 21
New

Hourly Weather History & Observations

Time (EST) Temp. Windchill Dew Point Humidity Pressure Visibility Wind Dir Wind Speed Gust Speed Precip Events Conditions
12:53 AM 51.1 °F - 48.9 °F 92% 29.08 in 4.0 mi SSE 6.9 mph - 0.11 in Rain Light Rain
1:06 AM 51.1 °F - 48.9 °F 92% 29.07 in 2.5 mi South 6.9 mph - 0.05 in Rain Rain
1:22 AM 51.1 °F - 48.9 °F 92% 29.06 in 4.0 mi South 6.9 mph - 0.11 in Rain Rain
1:33 AM 51.1 °F - 48.9 °F 92% 29.06 in 4.0 mi South 5.8 mph - 0.13 in Rain Light Rain
1:51 AM 51.8 °F - 48.2 °F 88% 29.05 in 5.0 mi South 9.2 mph - 0.15 in Rain Light Rain
1:53 AM 51.1 °F - 48.9 °F 92% 29.05 in 5.0 mi South 8.1 mph - 0.15 in Rain Light Rain
2:53 AM 52.0 °F - 50.0 °F 93% 29.05 in 8.0 mi SW 11.5 mph - 0.04 in Rain Light Rain
3:53 AM 52.0 °F - 48.9 °F 89% 29.07 in 10.0 mi SW 15.0 mph 21.9 mph 0.04 in Rain Light Rain
4:53 AM 52.0 °F - 48.9 °F 89% 29.09 in 10.0 mi SW 13.8 mph - 0.01 in Rain Light Rain
5:53 AM 51.1 °F - 48.9 °F 92% 29.10 in 6.0 mi SSW 11.5 mph - 0.07 in Rain Light Rain
6:34 AM 51.1 °F - 48.9 °F 92% 29.10 in 2.5 mi SSW 11.5 mph - 0.04 in Rain Light Rain
6:53 AM 51.1 °F - 48.9 °F 92% 29.11 in 2.5 mi SSW 10.4 mph - 0.04 in   Overcast
7:53 AM 51.1 °F - 48.9 °F 92% 29.10 in 5.0 mi SSW 9.2 mph - 0.01 in   Overcast
8:08 AM 51.1 °F - 48.9 °F 92% 29.09 in 5.0 mi SSW 9.2 mph - 0.01 in Rain Light Rain
8:53 AM 52.0 °F - 48.9 °F 89% 29.09 in 6.0 mi SSW 6.9 mph - 0.06 in Rain Light Rain
9:24 AM 52.0 °F - 50.0 °F 93% 29.08 in 8.0 mi SSW 3.5 mph - 0.01 in   Overcast
9:53 AM 52.0 °F - 50.0 °F 93% 29.08 in 6.0 mi SSW 5.8 mph - 0.01 in   Overcast
10:27 AM 52.0 °F - 50.0 °F 93% 29.08 in 2.0 mi West 4.6 mph - 0.01 in Rain Light Rain
10:35 AM 52.0 °F - 50.0 °F 93% 29.08 in 1.0 mi West 5.8 mph - 0.03 in Rain Rain
10:50 AM 51.8 °F - 50.0 °F 94% 29.08 in 2.0 mi West 6.9 mph - 0.07 in Rain Light Rain
10:53 AM 52.0 °F - 50.0 °F 93% 29.08 in 3.0 mi West 5.8 mph - 0.07 in Rain Light Rain
11:26 AM 52.0 °F - 48.9 °F 89% 29.09 in 2.5 mi WSW 12.7 mph - 0.06 in Rain Rain
11:53 AM 51.1 °F - 46.9 °F 86% 29.12 in 4.0 mi WSW 16.1 mph 27.6 mph 0.13 in Rain Rain
12:53 PM 41.0 °F 31.1 °F 37.4 °F 87% 29.22 in 9.0 mi SW 23.0 mph 40.3 mph N/A Rain Light Rain
1:00 PM 41.0 °F 29.8 °F 37.0 °F 86% 29.23 in 5.0 mi SW 29.9 mph 42.6 mph 0.00 in Rain Light Rain
1:53 PM 36.0 °F 23.5 °F 33.1 °F 89% 29.32 in 4.0 mi SW 27.6 mph 36.8 mph 0.00 in Snow Light Snow
2:09 PM 36.0 °F 23.5 °F 32.0 °F 86% 29.33 in 2.5 mi WSW 27.6 mph 41.4 mph 0.01 in Snow Light Snow
2:32 PM 36.0 °F 23.9 °F 32.0 °F 86% 29.35 in 3.0 mi SW 25.3 mph 38.0 mph 0.01 in Snow Light Snow
2:53 PM 35.6 °F 24.0 °F 30.2 °F 81% 29.37 in 10.0 mi SW 23.0 mph 39.1 mph N/A Rain Light Rain
3:53 PM 35.1 °F 21.6 °F 30.0 °F 82% 29.44 in 10.0 mi SW 31.1 mph 44.9 mph 0.00 in   Overcast
4:53 PM 34.0 °F 22.4 °F 28.9 °F 82% 29.49 in 5.0 mi SW 20.7 mph 34.5 mph 0.00 in   Overcast
5:01 PM 34.0 °F 22.4 °F 28.9 °F 82% 29.49 in 3.0 mi SW 20.7 mph 34.5 mph 0.00 in Snow Light Snow
5:53 PM 34.0 °F 23.0 °F 28.0 °F 79% 29.54 in 9.0 mi SW 18.4 mph 28.8 mph 0.00 in   Overcast
6:19 PM 33.1 °F 19.8 °F 28.0 °F 82% 29.55 in 10.0 mi SW 26.5 mph 35.7 mph 0.00 in Snow Light Snow
6:53 PM 33.1 °F 20.6 °F 27.0 °F 78% 29.60 in 10.0 mi WSW 23.0 mph 41.4 mph 0.00 in   Overcast
7:35 PM 32.0 °F 19.5 °F 27.0 °F 82% 29.60 in 10.0 mi WSW 21.9 mph 31.1 mph N/A   Overcast
7:53 PM 32.0 °F 18.6 °F 27.0 °F 82% 29.63 in 10.0 mi WSW 25.3 mph 42.6 mph N/A   Overcast
8:53 PM 32.0 °F 20.8 °F 25.0 °F 75% 29.66 in 10.0 mi WSW 17.3 mph 28.8 mph N/A   Overcast
9:53 PM 30.9 °F 18.7 °F 25.0 °F 79% 29.70 in 10.0 mi WSW 19.6 mph 38.0 mph N/A   Overcast
10:53 PM 30.9 °F 17.8 °F 25.0 °F 79% 29.73 in 8.0 mi WSW 23.0 mph 28.8 mph N/A   Overcast
11:53 PM 30.0 °F 16.9 °F 25.0 °F 82% 29.75 in 7.0 mi SW 21.9 mph 28.8 mph N/A   Overcast